Wind_Speed
35 34 34 35 34 33 32 32 32 32 32 32 32 31 31 31 31 31 30 30 29 29 29 29 28 27 27 26 26 25 25 25 24 23 23 23 22 22 22 22 21 21 21
36 37 37 37 36 36 35 35 34 34 33 33 33 33 33 33 33 33 32 32 31 31 31 31 31 30 29 28 28 28 27 27 26 26 25 24 24 24 23 23 23 23 23
38 39 39 39 38 38 38 38 37 37 36 36 35 35 35 35 34 34 34 34 34 33 33 33 33 33 32 31 30 29 29 28 28 28 27 26 26 26 25 24 24 24 24
42 41 41 41 41 40 40 40 40 39 39 38 38 37 37 37 37 36 36 35 36 36 36 35 35 34 34 33 32 31 30 30 30 29 29 28 28 27 27 27 26 25 26
44 44 43 42 42 43 42 42 42 42 42 41 41 40 38 38 38 38 38 37 37 37 37 37 37 36 36 35 35 34 33 32 31 31 31 30 29 28 28 28 28 27 27
47 46 45 44 44 44 45 44 44 44 44 43 42 42 41 40 40 40 39 39 39 39 38 39 39 38 38 37 37 36 35 35 33 33 32 31 30 30 30 30 29 29 28
50 49 48 48 47 47 47 46 46 46 45 45 44 43 42 43 42 42 42 41 42 42 41 41 41 40 39 39 38 38 37 37 36 35 34 33 32 32 31 31 31 30 30
53 52 51 51 50 50 50 50 49 48 47 47 46 45 44 44 44 44 43 43 43 43 42 42 42 42 41 41 40 39 39 38 38 37 36 36 34 34 33 31 32 32 32
55 54 53 53 53 52 52 52 52 51 50 49 49 48 47 46 45 45 46 46 45 44 44 44 44 44 43 43 42 41 40 40 39 38 38 38 36 36 35 33 33 33 32
55 56 56 55 55 55 54 53 53 52 52 51 51 50 50 49 48 46 46 47 47 47 46 46 45 45 45 44 44 43 43 42 42 40 39 39 38 37 37 36 35 34 33
57 57 58 57 57 57 56 55 54 54 53 53 53 52 52 51 51 50 48 47 47 47 47 47 47 46 47 46 46 45 44 44 44 43 42 41 39 38 38 38 37 36 34
57 57 57 58 58 57 57 56 55 55 55 55 54 54 53 52 51 51 51 50 49 48 48 48 48 47 47 48 48 47 46 45 45 44 43 42 41 41 40 40 39 37 37
57 58 58 58 58 57 57 56 55 56 56 56 56 55 54 54 52 52 52 52 52 50 49 49 49 49 49 49 49 48 48 47 47 45 44 43 43 42 42 41 40 40 39
57 58 58 57 57 57 57 57 57 56 56 56 56 56 55 54 54 53 53 53 53 52 51 49 50 51 51 50 49 49 49 49 48 48 47 46 45 44 44 43 42 41 41
58 58 57 57 57 57 58 58 58 58 57 56 56 57 57 56 55 55 54 54 54 53 52 51 50 50 51 51 51 51 50 50 49 49 48 48 47 46 45 44 43 43 42
57 57 57 57 56 57 58 58 58 58 58 57 57 56 57 57 57 56 55 55 55 54 54 52 51 51 51 51 51 51 51 51 50 50 49 48 48 47 47 46 45 44 44
55 55 55 55 56 57 57 57 58 58 58 58 57 57 57 58 58 57 57 57 55 54 54 53 52 52 52 52 52 52 52 51 51 51 51 51 50 49 48 47 47 46 45
54 55 54 55 55 56 56 56 56 57 58 58 58 58 58 57 58 58 58 58 56 54 54 53 53 53 53 53 52 53 52 51 51 52 52 52 51 51 50 50 49 48 48
54 54 55 56 57 57 56 57 57 57 57 58 58 59 59 58 57 57 58 58 58 56 55 54 53 53 53 53 53 53 53 52 52 52 53 53 52 52 52 51 51 50 49
52 53 54 56 57 57 57 57 57 57 56 56 57 57 57 57 56 56 56 56 57 56 55 55 54 53 53 53 53 53 53 52 52 52 53 54 54 53 53 52 51 51 50
48 50 52 53 54 55 56 56 56 56 56 56 55 56 56 55 56 55 55 55 56 56 56 55 54 54 53 53 53 53 53 53 52 52 52 54 54 54 54 53 52 51 51
47 48 50 51 52 53 54 54 55 55 54 53 53 53 54 55 55 55 55 55 54 54 54 54 53 53 52 52 52 52 53 54 53 53 53 53 54 54 54 53 52 51 51
47 48 48 49 49 50 51 53 54 53 52 51 51 50 51 52 53 53 53 54 53 52 52 52 51 51 51 52 52 52 53 53 53 52 54 54 54 54 54 54 53 53 52
46 47 46 47 47 47 48 49 51 52 51 49 49 49 50 50 51 52 52 52 52 51 51 50 50 50 52 52 52 52 53 53 53 52 53 54 54 54 55 54 54 54 53
43 44 44 44 44 44 45 46 47 48 48 48 47 47 47 48 49 50 50 50 50 50 51 51 51 51 51 51 51 52 53 54 53 52 52 52 52 53 53 53 53 54 54
41 41 41 41 41 41 41 42 43 44 45 46 46 46 46 47 47 47 48 49 49 49 50 50 50 50 51 51 50 51 52 52 53 52 52 52 52 52 52 52 51 52 52
Wind_Direction
261 260 260 259 258 258 258 257 256 256 255 255 255 255 255 255 255 255 255 254 254 253 252 251 251 251 253 254 255 255 257 258 260 259 261 263 263 264 266 268 270 273 273
262 260 260 260 260 258 258 257 256 256 256 255 255 256 255 255 255 255 255 255 254 253 253 253 253 253 253 254 255 255 256 257 259 259 260 262 262 263 265 267 269 271 273
264 261 261 260 260 259 258 258 257 257 256 256 256 255 255 255 254 255 255 254 253 253 253 253 254 254 254 254 255 256 256 257 258 259 259 261 261 262 264 266 268 269 270
264 263 262 261 260 260 259 259 259 259 258 257 256 256 256 255 254 254 255 254 254 254 253 253 253 253 253 253 254 255 257 257 257 258 259 260 260 261 263 265 266 268 269
265 264 263 261 261 260 259 259 258 259 258 257 257 257 256 256 255 254 254 254 254 253 252 253 253 253 253 253 254 255 256 257 257 258 258 259 261 262 263 265 266 268 268
265 265 264 261 260 261 260 259 259 258 258 258 258 258 257 257 256 255 254 254 253 253 253 253 253 253 254 254 254 255 256 256 258 258 257 258 260 262 265 266 267 268 268
264 264 264 263 262 261 261 259 259 258 257 257 257 258 257 257 257 257 256 255 255 254 253 253 253 252 254 255 255 255 256 256 257 257 258 258 260 262 264 268 267 268 269
264 263 263 263 262 261 260 259 259 258 258 257 258 258 257 257 256 255 255 256 256 256 255 254 253 253 253 254 255 255 255 255 257 256 257 258 260 262 263 266 269 270 271
263 263 262 261 261 261 260 260 259 259 258 258 258 258 257 257 257 256 256 256 255 255 255 255 254 254 254 254 254 254 255 255 255 255 257 257 258 260 262 264 267 268 270
262 263 262 261 261 261 260 260 259 259 258 258 257 257 258 258 257 256 256 255 255 255 255 254 254 254 254 254 254 254 255 255 255 255 257 257 258 260 262 263 265 267 270
261 261 261 260 260 260 260 259 258 257 257 257 257 258 258 258 258 257 256 255 254 254 254 254 253 253 253 253 254 255 255 255 256 256 256 257 258 259 261 262 263 265 268
262 261 260 259 259 259 258 257 257 257 257 257 257 257 257 258 258 257 256 255 254 254 253 253 253 253 253 253 254 254 254 255 256 256 256 257 258 259 261 262 262 264 265
261 260 260 259 258 258 258 257 256 256 256 256 256 257 257 257 257 258 257 256 255 254 254 253 253 253 253 254 254 254 254 254 254 255 256 257 258 259 260 262 263 264 265
260 260 258 258 258 258 258 257 257 257 256 256 256 256 257 258 258 258 258 257 256 255 255 254 253 252 253 253 254 254 254 253 253 253 254 255 256 257 259 261 262 264 264
259 259 258 257 257 257 258 257 257 257 257 257 257 256 256 256 257 258 258 258 258 257 255 254 254 253 253 253 253 253 252 252 253 253 253 254 255 256 257 259 261 263 264
260 258 257 257 256 257 258 258 257 257 257 257 257 256 256 256 256 257 257 257 258 257 256 254 254 253 253 253 252 252 252 252 252 252 253 253 254 255 257 259 260 262 264
261 260 258 258 257 257 257 258 258 257 257 257 257 257 257 256 255 256 256 256 257 257 257 255 254 253 253 252 252 252 252 252 252 253 253 253 254 255 257 259 260 261 263
261 260 259 259 258 257 256 257 258 257 257 257 257 257 257 257 256 255 255 255 255 255 256 255 254 253 252 253 253 253 252 252 252 253 253 254 255 255 256 257 259 261 262
262 261 261 260 259 258 258 257 258 257 258 258 257 257 257 257 256 255 254 254 253 253 253 254 254 253 252 253 253 253 253 253 253 253 253 254 255 255 256 257 258 260 261
263 262 261 261 260 259 258 258 257 257 257 257 258 257 256 256 255 255 254 253 253 252 252 253 253 252 252 253 254 253 252 252 253 254 254 254 254 255 256 257 258 260 261
265 264 262 262 262 260 259 258 258 257 257 257 256 256 255 254 254 253 253 252 251 251 251 251 252 252 252 252 253 253 252 252 252 253 254 255 255 255 256 257 258 259 260
267 266 265 264 263 261 260 258 257 257 257 256 256 255 254 253 253 252 251 251 250 250 250 250 251 251 251 251 252 252 252 251 252 254 255 255 255 255 256 256 258 259 260
268 268 267 266 263 262 261 259 258 257 256 256 255 254 254 253 252 252 251 250 249 249 250 250 250 251 251 251 251 251 251 251 252 253 255 255 255 254 255 256 257 259 260
269 268 268 266 264 262 261 259 257 256 255 255 255 255 254 252 251 250 250 250 250 250 250 250 251 251 251 251 251 251 251 252 252 253 255 256 255 255 255 256 258 259 260
270 269 268 266 265 262 261 260 258 257 255 254 254 254 253 252 251 250 250 250 250 250 250 250 250 250 251 251 251 251 252 252 252 253 255 255 255 254 254 256 258 259 260
271 270 269 267 265 263 261 259 259 257 256 254 253 253 253 253 251 251 249 249 249 249 249 249 249 249 250 251 251 252 252 253 252 253 254 255 255 254 254 256 258 259 260
Height
5793 5794 5795 5796 5797 5798 5799 5800 5802 5803 5804 5805 5807 5808 5810 5811 5812 5814 5815 5817 5818 5820 5821 5822 5824 5826 5827 5828 5830 5831 5833 5834 5834 5835 5836 5837 5838 5839 5839 5840 5840 5840 5840
5785 5786 5787 5788 5789 5790 5791 5792 5794 5795 5797 5798 5799 5801 5802 5804 5805 5806 5808 5809 5811 5813 5814 5816 5818 5819 5821 5822 5824 5825 5827 5828 5829 5830 5831 5832 5833 5833 5834 5835 5835 5835 5836
5775 5777 5778 5779 5780 5781 5783 5784 5785 5787 5788 5790 5791 5793 5794 5796 5797 5799 5800 5802 5803 5805 5807 5809 5810 5812 5814 5816 5817 5819 5820 5822 5823 5824 5825 5826 5827 5828 5828 5829 5830 5830 5830
5766 5767 5768 5769 5770 5772 5773 5774 5776 5777 5779 5780 5782 5784 5785 5787 5789 5790 5792 5794 5795 5797 5799 5801 5803 5805 5807 5809 5811 5812 5814 5815 5816 5818 5819 5819 5821 5822 5822 5823 5824 5824 5824
5755 5756 5758 5759 5760 5761 5763 5764 5766 5767 5769 5770 5772 5774 5776 5778 5779 5781 5783 5785 5787 5789 5791 5793 5795 5797 5799 5801 5803 5805 5806 5808 5809 5811 5812 5813 5814 5815 5816 5817 5817 5818 5818
5743 5745 5746 5748 5749 5750 5751 5753 5754 5756 5758 5760 5761 5763 5765 5767 5769 5771 5774 5775 5777 5779 5782 5784 5786 5789 5791 5793 5795 5797 5799 5800 5802 5803 5805 5806 5807 5808 5809 5810 5810 5811 5811
5731 5732 5734 5736 5737 5738 5740 5741 5743 5745 5746 5748 5750 5753 5755 5757 5759 5761 5763 5765 5767 5770 5772 5774 5777 5779 5782 5784 5786 5788 5790 5792 5794 5795 5797 5798 5800 5801 5802 5802 5803 5804 5804
5717 5719 5721 5722 5724 5726 5727 5729 5730 5732 5734 5736 5738 5740 5743 5747 5748 5750 5752 5754 5757 5759 5761 5764 5766 5769 5772 5774 5776 5779 5781 5783 5785 5787 5788 5790 5791 5793 5794 5795 5795 5796 5797
5703 5704 5706 5708 5710 5711 5713 5715 5717 5720 5722 5724 5725 5728 5730 5734 5736 5739 5741 5743 5745 5748 5750 5753 5755 5758 5761 5763 5766 5769 5771 5773 5775 5777 5779 5781 5783 5784 5785 5786 5787 5788 5789
5688 5689 5691 5693 5695 5697 5699 5701 5703 5706 5708 5711 5713 5715 5717 5719 5722 5726 5729 5731 5733 5736 5738 5741 5744 5747 5749 5752 5755 5758 5760 5763 5765 5767 5769 5771 5773 5775 5776 5777 5779 5780 5780
5672 5673 5675 5677 5679 5682 5684 5687 5689 5691 5694 5696 5699 5701 5703 5705 5707 5711 5715 5718 5720 5723 5726 5729 5732 5734 5737 5740 5743 5746 5749 5752 5754 5757 5759 5761 5763 5765 5767 5768 5770 5771 5772
5655 5657 5658 5661 5663 5666 5668 5671 5674 5676 5679 5682 5684 5686 5689 5691 5694 5696 5700 5704 5706 5710 5713 5716 5719 5722 5725 5728 5731 5734 5737 5740 5743 5746 5748 5750 5752 5754 5756 5758 5760 5761 5762
5640 5641 5643 5645 5647 5650 5652 5655 5658 5661 5663 5666 5669 5672 5674 5677 5679 5682 5685 5689 5692 5697 5700 5703 5706 5709 5712 5715 5718 5721 5725 5728 5731 5734 5737 5739 5742 5744 5746 5748 5750 5751 5752
5624 5625 5626 5629 5631 5634 5636 5639 5642 5645 5648 5650 5653 5656 5659 5662 5665 5667 5671 5674 5677 5682 5686 5690 5693 5696 5699 5702 5705 5708 5711 5715 5718 5722 5725 5728 5731 5733 5735 5737 5739 5741 5742
5607 5608 5610 5613 5615 5618 5620 5623 5626 5629 5632 5635 5638 5641 5644 5647 5650 5653 5656 5659 5662 5667 5672 5676 5679 5682 5684 5688 5691 5695 5698 5702 5705 5709 5713 5716 5719 5721 5723 5726 5728 5730 5731
5591 5592 5594 5596 5599 5602 5604 5607 5610 5612 5615 5618 5621 5625 5628 5631 5634 5637 5641 5644 5647 5650 5656 5661 5664 5667 5670 5673 5677 5680 5684 5688 5692 5695 5699 5703 5706 5709 5711 5714 5716 5718 5720
5574 5576 5578 5581 5583 5585 5588 5591 5593 5596 5599 5602 5605 5608 5611 5615 5618 5621 5625 5628 5631 5634 5639 5645 5648 5652 5655 5659 5662 5666 5670 5674 5678 5682 5685 5689 5693 5696 5699 5701 5704 5706 5708
5559 5560 5562 5564 5567 5569 5571 5574 5577 5579 5582 5586 5589 5592 5595 5598 5601 5605 5608 5612 5616 5619 5623 5628 5633 5637 5640 5644 5648 5652 5656 5660 5664 5668 5671 5675 5679 5683 5686 5689 5691 5693 5695
5543 5545 5546 5548 5550 5552 5555 5557 5560 5563 5566 5569 5572 5575 5578 5581 5585 5588 5592 5595 5600 5604 5608 5612 5617 5622 5625 5629 5633 5637 5641 5645 5650 5653 5657 5661 5665 5668 5672 5675 5677 5680 5682
5528 5529 5530 5532 5534 5536 5538 5540 5543 5546 5550 5553 5555 5558 5561 5565 5568 5572 5575 5579 5583 5588 5592 5596 5602 5606 5611 5614 5618 5622 5626 5631 5635 5639 5642 5646 5650 5654 5657 5661 5664 5667 5668
5513 5514 5515 5516 5518 5519 5521 5523 5526 5529 5533 5536 5539 5542 5545 5548 5551 5555 5559 5563 5567 5571 5576 5581 5586 5591 5595 5599 5604 5607 5611 5616 5620 5624 5627 5632 5636 5640 5642 5646 5649 5652 5654
5498 5499 5500 5501 5502 5504 5505 5507 5509 5512 5516 5519 5522 5525 5528 5532 5535 5539 5543 5547 5551 5556 5561 5566 5571 5575 5580 5584 5588 5592 5596 5601 5607 5611 5613 5617 5620 5624 5627 5631 5634 5637 5639
5484 5485 5485 5486 5487 5488 5490 5491 5493 5496 5500 5504 5506 5510 5513 5516 5519 5523 5527 5531 5536 5541 5546 5551 5555 5560 5565 5570 5573 5578 5581 5585 5591 5595 5598 5602 5606 5609 5613 5616 5619 5622 5625
5470 5471 5471 5472 5473 5474 5475 5476 5478 5481 5485 5489 5491 5494 5497 5501 5504 5508 5512 5517 5522 5527 5532 5536 5542 5546 5549 5553 5558 5562 5566 5571 5576 5580 5583 5587 5591 5595 5598 5601 5604 5607 5610
5457 5457 5457 5458 5459 5460 5461 5462 5464 5467 5471 5475 5478 5480 5483 5487 5491 5494 5498 5503 5508 5512 5516 5521 5526 5530 5534 5538 5542 5547 5551 5556 5561 5565 5569 5572 5576 5580 5583 5586 5589 5592 5594
5444 5444 5445 5445 5446 5447 5448 5449 5451 5454 5458 5461 5465 5468 5471 5474 5476 5479 5484 5489 5494 5498 5502 5507 5511 5516 5520 5524 5528 5532 5537 5541 5546 5551 5555 5558 5561 5565 5569 5572 5574 5577 5579